カタログに戻る

SL-12 DEB

LostHEO
NORAD 41646·DEBRIS·🇷🇺 Russia

打ち上げ Dec 25, 2008 から Baikonur Cosmodrome

Loading…

次のパス (今後24時間)

TLE

古いSource: Space-Track

元期: Oct 23, 2016, 05:58 UTC

1 41646U 08067S   16297.24897363 -.00005643  00000-0 -38996+0 0  9993
2 41646  65.0211 341.3509 5393419  68.6926 339.3190  4.13576829  5709

AllMySatでSL-12 DEBをリアルタイム追跡

Download on the App Store